Weather History for KDYS - November, 2012

Change the Weather History Date:

Tuesday, November 13, 2012

  Actual Average (KABI) Record (KABI)
Temperature  
Mean Temperature 40 °F 56 °F  
Max Temperature 54 °F 67 °F 85 °F (1944)
Min Temperature 27 °F 44 °F 21 °F (1986)
Degree Days  
Heating Degree Days 24 10  
Month to date heating degree days 102  
Since 1 July heating degree days 206  
Cooling Degree Days 0 1  
Month to date cooling degree days 15  
Year to date cooling degree days 2404  
Moisture  
Dew Point 18 °F    
Average Humidity 43    
Maximum Humidity 72    
Minimum Humidity 20    
Precipitation  
Precipitation 0.00 in 0.05 in 1.44 in (1934)
Month to date precipitation 0.73  
Year to date precipitation 22.91  
Sea Level Pressure  
Sea Level Pressure 30.40 in    
Wind  
Wind Speed 7 mph (SSE)    
Max Wind Speed 21 mph    
Max Gust Speed -    
Visibility 9 miles    
Events      
T = Trace of Precipitation, MM = Missing Value Source: NWS Daily Summary

Daily Weather History Graph

Daily Weather History Graph

Search for Another Location

Airport or City:

Trip Planner

Search our weather history database for the weather conditions in past years. The results will help you decide how hot, cold, wet, or windy it might be!

Date:

Astronomy

Nov. 13, 2012 Rise Set
Actual Time 7:07 AM CST 5:39 PM CST
Civil Twilight 6:41 AM CST 6:05 PM CST
Nautical Twilight 6:12 AM CST 6:35 PM CST
Astronomical Twilight 5:42 AM CST 7:04 PM CST
Moon 6:47 AM CST (11/13) 5:35 PM CST (11/13)
Length of Visible Light 11h 24m
Length of Day
10h 32m
Waning Crescent, 0% of the Moon is Illuminated
Nov 13
Waning Crescent
Nov 13
New
Nov 20
First Quarter
Nov 28
Full
Dec 6
Last Quarter

Hourly Weather History & Observations

Time (CST) Temp. Windchill Dew Point Humidity Pressure Visibility Wind Dir Wind Speed Gust Speed Precip Events Conditions
12:55 AM 31.6 °F - 19.2 °F 60% 30.49 in 6.0 mi Calm Calm - N/A   Haze
1:55 AM 30.4 °F - 17.1 °F 58% 30.47 in 6.0 mi Calm Calm - N/A   Haze
2:55 AM 31.8 °F - 20.7 °F 63% 30.43 in 3.0 mi Calm Calm - N/A   Haze
3:55 AM 27.1 °F 23.2 °F 19.0 °F 72% 30.43 in 6.0 mi SSE 3.5 mph - N/A   Haze
4:55 AM 31.3 °F - 18.1 °F 58% 30.41 in 7.0 mi Calm Calm - N/A   Clear
5:55 AM 29.7 °F 26.1 °F 18.7 °F 64% 30.44 in 10.0 mi South 3.5 mph - N/A   Clear
6:55 AM 32.2 °F 25.8 °F 20.5 °F 62% 30.45 in 10.0 mi South 6.9 mph - N/A   Clear
7:23 AM 32.0 °F 24.8 °F 21.2 °F 64% 30.45 in 10.0 mi South 8.1 mph - N/A   Clear
7:55 AM 35.6 °F 29.9 °F 22.1 °F 58% 30.46 in 10.0 mi South 6.9 mph - N/A   Clear
8:29 AM 39.2 °F 32.5 °F 23.0 °F 52% 30.46 in 10.0 mi SSE 10.4 mph - N/A   Clear
8:55 AM 42.4 °F 36.1 °F 19.8 °F 40% 30.46 in 10.0 mi SSE 11.5 mph - N/A   Clear
9:38 AM 46.4 °F 39.2 °F 19.4 °F 34% 30.46 in 10.0 mi SE 18.4 mph - N/A   Clear
9:53 AM 48.2 °F - 19.4 °F 32% 30.46 in 1.8 mi SSE 17.3 mph - N/A   Haze
9:55 AM 47.8 °F - 19.4 °F 32% 30.45 in 10.0 mi SSE 19.6 mph - N/A   Clear
10:55 AM 51.1 °F - 18.0 °F 27% 30.43 in 9.0 mi SSE 19.6 mph - N/A   Partly Cloudy
11:55 AM 52.0 °F - 15.3 °F 23% 30.40 in 10.0 mi SSE 20.7 mph - N/A   Mostly Cloudy
12:55 PM 53.4 °F - 13.5 °F 20% 30.37 in 10.0 mi South 18.4 mph - N/A   Overcast
1:55 PM 54.1 °F - 16.3 °F 23% 30.35 in 10.0 mi South 11.5 mph - N/A   Overcast
2:55 PM 53.6 °F - 16.0 °F 23% 30.33 in 10.0 mi SSE 11.5 mph - N/A   Overcast
3:55 PM 54.5 °F - 16.0 °F 22% 30.30 in 10.0 mi SSE 17.3 mph - N/A   Scattered Clouds
4:55 PM 53.2 °F - 16.5 °F 24% 30.29 in 10.0 mi South 12.7 mph - N/A   Clear
5:55 PM 45.7 °F 41.0 °F 17.1 °F 32% 30.30 in 10.0 mi SSE 9.2 mph - N/A   Clear
6:55 PM 45.7 °F 42.7 °F 16.9 °F 32% 30.31 in 10.0 mi ESE 5.8 mph - N/A   Clear
7:55 PM 41.7 °F 39.8 °F 17.4 °F 38% 30.33 in 10.0 mi SE 3.5 mph - N/A   Clear
8:55 PM 36.9 °F 32.2 °F 19.0 °F 49% 30.34 in 10.0 mi SSE 5.8 mph - N/A   Clear
9:55 PM 38.5 °F 35.0 °F 18.9 °F 45% 30.35 in 10.0 mi SE 4.6 mph - N/A   Clear
10:55 PM 34.9 °F 30.8 °F 17.1 °F 48% 30.35 in 10.0 mi South 4.6 mph - N/A   Clear
11:55 PM 35.8 °F 31.9 °F 19.0 °F 51% 30.35 in 10.0 mi SSE 4.6 mph - N/A   Clear